Hourly Data Report for October 24, 2014

All times are specified in Local Standard Time (LST). Add 1 hour to adjust for Daylight Saving Time where and when it is observed.

SAINT JOHN A
NEW BRUNSWICK

45°18'58.000" N
65°53'24.000" W
108.80 m
8104901
71609
YSJ

Download Data

Hourly Data (October 2014)
Hourly Data Report for October 24, 2014
Temp Definition
°C
Dew Point Temp Definition
°C
Rel Hum Definition
%
Wind Dir Definition
10's deg

Wind Spd Definition
km/h
Visibility Definition
km
Stn Press Definition
kPa
Hmdx Definition


Wind Chill Definition


Weather Definition


TIME
00:00 Legend Double Dagger 10.4 10.1 98 4 14 6.4 99.41     Rain,Fog
01:00 Legend Double Dagger 10.2 10.2 100 3 21 4.8 99.28     Rain,Fog
02:00 Legend Double Dagger 10.0 9.7 98 3 19 6.4 99.25     Rain,Fog
03:00 Legend Double Dagger 9.6 9.2 97 3 27 8.1 99.13     Rain,Fog
04:00 Legend Double Dagger 9.4 9.0 97 2 23 9.7 99.13     Rain,Fog
05:00 Legend Double Dagger 9.5 9.2 98 2 20 6.4 99.12     Rain,Fog
06:00 Legend Double Dagger 9.4 9.4 100 2 19 4.8 99.03     Rain,Fog
07:00 Legend Double Dagger 9.6 9.6 100 2 23 4.0 99.00     Rain,Fog
08:00 Legend Double Dagger 9.9 9.8 99 3 22 12.9 98.98     Rain
09:00 Legend Double Dagger 10.0 9.9 99 2 28 4.0 98.96     Rain,Fog
10:00 Legend Double Dagger 10.0 9.6 97 2 27 9.7 98.94     Rain,Fog
11:00 Legend Double Dagger 10.2 9.8 97 3 28 12.9 98.92     Rain
12:00 Legend Double Dagger 10.8 10.4 97 2 29 9.7 98.86     Rain
13:00 Legend Double Dagger 10.6 9.8 95 2 28 16.1 98.80     Rain
14:00 Legend Double Dagger 10.6 9.7 94 2 30 24.1 98.74     Rain
15:00 Legend Double Dagger 9.9 9.3 96 1 26 12.9 98.72     Rain
16:00 Legend Double Dagger 9.3 8.6 95 1 31 12.9 98.70     Rain
17:00 Legend Double Dagger 8.5 7.9 96 2 39 12.9 98.69     Cloudy
18:00 Legend Double Dagger 8.1 7.7 97 1 26 12.9 98.72     Rain
19:00 Legend Double Dagger 7.0 6.7 98 36 24 6.4 98.75     Drizzle,Fog
20:00 Legend Double Dagger 6.5 6.2 98 35 23 4.8 98.76     Drizzle,Fog
21:00 Legend Double Dagger 6.2 6.1 99 35 25 4.8 98.77     Fog
22:00 Legend Double Dagger 6.2 5.9 98 35 23 4.8 98.75     Drizzle,Fog
23:00 Legend Double Dagger 5.9 5.6 98 35 24 4.8 98.74     Drizzle,Fog

Notes on Data Quality.

Legend

  • E = Estimated
  • M = Missing
  • NA = Not Available
  • ‡ = Partner data that is not subject to review by the National Climate Archives
Date modified: